Location: Poughquag
(41.6090°N, 73.6820°W)
Time: 07:13:40
(UTC-05:00)

Altair - Pass Details

Date: 03 December 2023
Orbit: 1501 x 1682 km, 47.2° (Epoch: 02 March)

Event Time Altitude Azimuth Distance (km) Brightness Sun altitude
Rises 17:10:39 0° 286° (WNW) 4,643 10.9 -8.5°
Reaches altitude 10° 17:15:53 10° 262° (W) 3,649 11.0 -9.4°
Maximum altitude 17:19:36 13° 237° (WSW) 3,402 10.7 -10.1°
Drops below altitude 10° 17:23:21 10° 212° (SSW) 3,652 10.3 -10.7°
Sets 17:28:39 0° 187° (S) 4,649 10.4 -11.7°
